Retour au catalogue

FENGYUN 1C DEB

ActifSSO
NORAD 31074·DEBRIS·🇨🇳 China

Lancé May 10, 1999 depuis Taiyuan Satellite Launch Center

Loading…

Prochains Passages (prochaines 24 heures)

TLE

FraisSource: Space-Track

Époque: Sep 13, 2026, 05:01 UTC

1 31074U 99025BFU 26256.20922205  .00002219  00000-0  11059-2 0  9995
2 31074  98.9543 177.4588 0082989 204.7793 154.9385 14.16197977994620

Suivez FENGYUN 1C DEB en temps réel avec AllMySat

Download on the App Store